Location: Antioch Baptist Church
(32.6696°N, 85.7327°W)
Time: 00:50:14
(UTC+00:00)

ADEOS II - Pass Details

Date: 14 July 2020
Orbit: 799 x 801 km, 98.5° (Epoch: 12 August)

Event Time Altitude Azimuth Distance (km) Brightness Sun altitude
Rises 08:04:29 0° 11° (N) 3,312 6.3 -26.8°
Reaches altitude 10° 08:06:49 10° 10° (N) 2,378 5.4 -26.5°
Maximum altitude 08:12:05 81° 284° (WNW) 813 1.9 -25.9°
Enters shadow 08:12:21 78° 239° (WSW) 821 1.9 -25.8°
